| time (UTC) | temp F | wind direction | speed MPH | gust MPH | rain 1hr in | rain 24hr in | rain mn in | humidity % | barometer mb |
| 20260503190056 | 72 | 68 | 2.0 | 5.0 | 0.00 | 0.00 | 0.00 | 16 | 1023.3 |
| 20260503184602 | 73 | 0 | 3.0 | 8.0 | 0.00 | 0.00 | 0.00 | 15 | 1023.7 |
| 20260503183048 | 72 | 0 | 2.0 | 7.0 | 0.00 | 0.00 | 0.00 | 16 | 1023.9 |
| 20260503181548 | 72 | 0 | 2.0 | 7.0 | 0.00 | 0.00 | 0.00 | 17 | 1024.1 |
| 20260503180055 | 72 | 229 | 2.0 | 7.0 | 0.00 | 0.00 | 0.00 | 14 | 1024.3 |
| 20260503174604 | 71 | 88 | 1.0 | 15.0 | 0.00 | 0.00 | 0.00 | 16 | 1024.7 |
| 20260503173055 | 68 | 52 | 0.0 | 2.0 | 0.00 | 0.00 | 0.00 | 21 | 1025.2 |
| 20260503171551 | 68 | 0 | 1.0 | 3.0 | 0.00 | 0.00 | 0.00 | 18 | 1025.6 |
| 20260503100106 | 53 | 266 | 0.0 | 2.0 | 0.00 | 0.00 | 0.00 | 34 | 1025.9 |
| 20260503081556 | 56 | 249 | 3.0 | 8.0 | 0.00 | 0.00 | 0.00 | 27 | 1026.2 |
| 20260503071554 | 53 | 235 | 2.0 | 7.0 | 0.00 | 0.00 | 0.00 | 24 | 1026.5 |
| 20260503054550 | 55 | 266 | 3.0 | 9.0 | 0.00 | 0.00 | 0.00 | 19 | 1026.8 |
| 20260503053053 | 54 | 256 | 2.0 | 5.0 | 0.00 | 0.00 | 0.00 | 20 | 1026.8 |
| 20260503051549 | 53 | 255 | 0.0 | 4.0 | 0.00 | 0.00 | 0.00 | 21 | 1026.8 |
| 20260503050052 | 53 | 0 | 0.0 | 3.0 | 0.00 | 0.00 | 0.00 | 22 | 1026.7 |
| 20260503044552 | 54 | 0 | 0.0 | 2.0 | 0.00 | 0.00 | 0.00 | 22 | 1026.7 |
| 20260503043047 | 54 | 0 | 0.0 | 2.0 | 0.00 | 0.00 | 0.00 | 21 | 1026.8 |
| 20260503041550 | 54 | 0 | 0.0 | 3.0 | 0.00 | 0.00 | 0.00 | 21 | 1026.8 |
| 20260503040051 | 55 | 0 | 0.0 | 3.0 | 0.00 | 0.00 | 0.00 | 21 | 1026.8 |
| 20260503034603 | 55 | 0 | 0.0 | 2.0 | 0.00 | 0.00 | 0.00 | 21 | 1026.6 |
| 20260503033056 | 56 | 0 | 0.0 | 2.0 | 0.00 | 0.00 | 0.00 | 19 | 1026.7 |
| 20260503031554 | 57 | 0 | 0.0 | 1.0 | 0.00 | 0.00 | 0.00 | 18 | 1026.6 |
| 20260503030049 | 58 | 303 | 0.0 | 3.0 | 0.00 | 0.00 | 0.00 | 18 | 1026.6 |
| 20260503024551 | 59 | 0 | 0.0 | 4.0 | 0.00 | 0.00 | 0.00 | 17 | 1026.4 |
| 20260503023047 | 59 | 0 | 0.0 | 2.0 | 0.00 | 0.00 | 0.00 | 17 | 1026.3 |
| 20260503021548 | 60 | 0 | 0.0 | 0.0 | 0.00 | 0.00 | 0.00 | 16 | 1026.2 |
| 20260503020055 | 62 | 0 | 0.0 | 0.0 | 0.00 | 0.00 | 0.00 | 14 | 1026.0 |
| 20260503014600 | 64 | 0 | 0.0 | 1.0 | 0.00 | 0.00 | 0.00 | 14 | 1025.9 |
| 20260503013052 | 66 | 0 | 0.0 | 3.0 | 0.00 | 0.00 | 0.00 | 11 | 1025.7 |
| 20260503011551 | 68 | 146 | 0.0 | 4.0 | 0.00 | 0.00 | 0.00 | 10 | 1025.7 |
| 20260503010051 | 69 | 124 | 0.0 | 4.0 | 0.00 | 0.00 | 0.00 | 9 | 1025.7 |
| 20260503004555 | 71 | 69 | 1.0 | 4.0 | 0.00 | 0.00 | 0.00 | 9 | 1025.7 |
| 20260503003104 | 73 | 97 | 1.0 | 4.0 | 0.00 | 0.00 | 0.00 | 8 | 1025.7 |
| 20260503001608 | 74 | 138 | 1.0 | 4.0 | 0.00 | 0.00 | 0.00 | 7 | 1025.8 |
| 20260503000053 | 74 | 38 | 1.0 | 6.0 | 0.00 | 0.00 | 0.00 | 9 | 1026.0 |
| 20260502234553 | 75 | 67 | 2.0 | 7.0 | 0.00 | 0.00 | 0.00 | 8 | 1026.1 |
| 20260502233051 | 74 | 0 | 1.0 | 7.0 | 0.00 | 0.00 | 0.00 | 8 | 1026.1 |
| 20260502231551 | 73 | 0 | 0.0 | 6.0 | 0.00 | 0.00 | 0.00 | 10 | 1026.3 |
| 20260502230050 | 73 | 0 | 1.0 | 5.0 | 0.00 | 0.00 | 0.00 | 9 | 1026.2 |
| 20260502224551 | 75 | 78 | 1.0 | 8.0 | 0.00 | 0.00 | 0.00 | 9 | 1026.4 |
| 20260502223054 | 74 | 309 | 0.0 | 8.0 | 0.00 | 0.00 | 0.00 | 9 | 1026.6 |
| 20260502221550 | 74 | 130 | 2.0 | 7.0 | 0.00 | 0.00 | 0.00 | 10 | 1026.7 |
| 20260502220045 | 73 | 135 | 3.0 | 9.0 | 0.00 | 0.00 | 0.00 | 11 | 1026.8 |
| 20260502214600 | 73 | 112 | 0.0 | 10.0 | 0.00 | 0.00 | 0.00 | 11 | 1027.2 |
| 20260502213054 | 74 | 66 | 1.0 | 4.0 | 0.00 | 0.00 | 0.00 | 11 | 1027.5 |
| 20260502211554 | 71 | 114 | 0.0 | 4.0 | 0.00 | 0.00 | 0.00 | 11 | 1027.7 |
| 20260502210114 | 72 | 119 | 2.0 | 10.0 | 0.00 | 0.00 | 0.00 | 11 | 1028.0 |
| 20260502204555 | 73 | 307 | 2.0 | 8.0 | 0.00 | 0.00 | 0.00 | 12 | 1028.1 |
| 20260502203054 | 72 | 93 | 2.0 | 5.0 | 0.00 | 0.00 | 0.00 | 12 | 1028.2 |
| 20260502201607 | 71 | 267 | 1.0 | 7.0 | 0.00 | 0.00 | 0.00 | 12 | 1028.4 |
| 20260502200053 | 71 | 34 | 3.0 | 9.0 | 0.00 | 0.00 | 0.00 | 14 | 1028.5 |
| 20260502194551 | 69 | 105 | 0.0 | 4.0 | 0.00 | 0.00 | 0.00 | 16 | 1028.7 |
| 20260502193054 | 68 | 109 | 0.0 | 9.0 | 0.00 | 0.00 | 0.00 | 17 | 1029.0 |
| 20260502191553 | 69 | 130 | 1.0 | 4.0 | 0.00 | 0.00 | 0.00 | 16 | 1029.1 |